Date String (YYYY-MM-DD hh:mm:ss) UTC,Instrument flags,Ambient pressure (hPa),Sample flow (lpm),Bypass flow (lpm),Sample temperature (°C),Ambient temperature (°C),ASC tube jacket temperature (°C),LED temperature (°C),Box temperature (°C),Sample RH (%),Span deviation,Mass concentration (μg/m³),Mass concentration (μg/m³),Mass concentration (μg/m³)
DateTimeUTC,F1_M11,P_M11,Q1_M11,Q2_M11,T1_M11,T2_M11,T3_M11,T4_M11,T5_M11,U1_M11,ZSPAN_M11,X2_M11,X0_M11,X1_M11
2023-05-28 19:00:00,,0828.6,4.99,0.00,29.1,27.1,00.0,37.4,30.8,26.1,0002.6,0005.52,0010.97,0004.49
2023-05-28 19:01:00,,0828.6,5.00,0.00,29.1,27.3,00.0,37.4,30.8,25.9,0003.2,0005.53,0010.90,0004.53
2023-05-28 19:02:00,,0828.6,4.99,0.00,29.1,27.5,00.0,37.4,30.9,25.1,0002.8,0005.54,0010.95,0004.55
2023-05-28 19:03:00,,0828.6,5.00,0.00,29.2,27.6,00.0,37.4,30.9,26.0,0002.9,0005.53,0010.97,0004.55
2023-05-28 19:04:00,,0828.6,5.00,0.00,29.2,27.7,00.0,37.5,30.9,25.9,0003.0,0005.48,0010.92,0004.51
2023-05-28 19:05:00,,0828.6,5.00,0.00,29.2,27.8,00.0,37.5,31.0,25.7,0002.3,0005.39,0010.71,0004.48
2023-05-28 19:06:00,,0828.6,5.00,0.00,29.2,27.9,00.0,37.5,31.0,25.2,0000.5,0005.37,0010.58,0004.46
2023-05-28 19:07:00,,0828.6,5.01,0.00,29.3,28.0,00.0,37.5,31.1,24.9,0000.5,0005.37,0010.60,0004.45
2023-05-28 19:08:00,,0828.6,5.00,0.00,29.3,28.1,00.0,37.5,31.1,23.9,0000.6,0005.33,0010.60,0004.40
2023-05-28 19:09:00,,0828.6,5.00,0.00,29.3,28.2,00.0,37.6,31.1,24.0,0000.0,0005.24,0011.18,0004.35
2023-05-28 19:10:00,,0828.6,5.00,0.00,29.4,28.2,00.0,37.6,31.1,25.2,0000.0,0005.15,0011.02,0004.31
2023-05-28 19:11:00,,0828.6,5.00,0.00,29.4,28.2,00.0,37.6,31.2,25.9,0000.0,0005.06,0010.09,0004.25
2023-05-28 19:12:00,,0828.5,4.98,0.00,29.4,26.8,00.0,37.5,31.0,25.7,0001.3,0005.05,0010.26,0004.22
2023-05-28 19:13:00,,0828.5,5.01,0.00,29.4,25.8,00.0,37.5,30.9,24.5,0001.4,0005.04,0010.31,0004.19
2023-05-28 19:14:00,,0828.6,5.01,0.00,29.3,25.9,00.0,37.5,30.7,24.8,0001.9,0005.04,0010.33,0004.17
2023-05-28 19:15:00,,0828.4,5.00,0.00,29.2,26.1,00.0,37.5,30.7,24.9,0000.6,0004.99,0010.23,0004.14
2023-05-28 19:16:00,,0828.5,5.00,0.00,29.2,26.4,00.0,37.5,30.8,23.9,0001.0,0004.95,0010.08,0004.11
2023-05-28 19:17:00,,0828.5,4.99,0.00,29.2,26.7,00.0,37.5,30.8,24.1,0001.9,0004.89,0010.09,0004.08
2023-05-28 19:18:00,,0828.4,4.99,0.00,29.2,27.0,00.0,37.5,30.9,26.0,0000.2,0004.82,0010.07,0004.04
2023-05-28 19:19:00,,0828.4,5.00,0.00,29.3,27.3,00.0,37.5,30.9,25.0,-000.1,0004.79,0010.19,0004.00
2023-05-28 19:20:00,,0828.4,5.01,0.00,29.3,27.5,00.0,37.5,31.0,25.4,0000.2,0004.82,0009.45,0004.00
2023-05-28 19:21:00,,0828.4,5.00,0.00,29.3,27.6,00.0,37.6,31.0,25.4,-000.0,0004.82,0009.34,0003.97
2023-05-28 19:22:00,,0828.4,5.00,0.00,29.3,27.8,00.0,37.6,31.1,24.8,0000.2,0004.89,0009.47,0003.99
2023-05-28 19:23:00,,0828.4,4.99,0.00,29.3,27.9,00.0,37.6,31.1,24.4,0000.2,0004.92,0009.35,0004.00
2023-05-28 19:24:00,,0828.4,4.99,0.00,29.4,28.0,00.0,37.6,31.1,23.2,0000.0,0004.92,0009.36,0003.98
2023-05-28 19:25:00,,0828.4,5.00,0.00,29.4,28.1,00.0,37.6,31.1,23.6,0000.0,0004.89,0009.30,0003.96
2023-05-28 19:26:00,,0828.3,5.00,0.00,29.4,28.2,00.0,37.7,31.2,23.2,0000.0,0004.86,0009.30,0003.94
2023-05-28 19:27:00,,0828.4,5.01,0.00,29.5,28.3,00.0,37.7,31.2,21.8,0000.0,0004.85,0009.58,0003.93
2023-05-28 19:28:00,,0828.4,4.99,0.00,29.5,27.6,00.0,37.7,31.2,22.4,0000.0,0004.84,0009.62,0003.92
2023-05-28 19:29:00,,0828.3,5.00,0.00,29.5,26.1,00.0,37.6,31.0,22.1,0000.0,0004.85,0009.99,0003.89
2023-05-28 19:30:00,,0828.3,5.02,0.00,29.4,25.8,00.0,37.5,30.9,21.9,0000.0,0004.84,0010.26,0003.87
2023-05-28 19:31:00,,0828.3,5.00,0.00,29.3,25.9,00.0,37.5,30.7,22.8,0000.0,0004.78,0010.13,0003.84
2023-05-28 19:32:00,,0828.3,5.00,0.00,29.3,26.2,00.0,37.5,30.8,23.5,0000.0,0004.73,0009.99,0003.82
2023-05-28 19:33:00,,0828.3,5.00,0.00,29.3,26.6,00.0,37.6,30.8,24.4,0000.0,0004.63,0009.96,0003.78
2023-05-28 19:34:00,,0828.4,5.00,0.00,29.3,26.9,00.0,37.6,30.9,22.9,0000.0,0004.60,0010.01,0003.73
2023-05-28 19:35:00,,0828.3,4.99,0.00,29.3,27.1,00.0,37.6,30.9,22.0,0000.0,0004.61,0010.09,0003.71
2023-05-28 19:36:00,,0828.3,5.00,0.00,29.3,27.4,00.0,37.6,31.0,21.1,0000.0,0004.59,0010.05,0003.69
2023-05-28 19:37:00,,0828.2,5.00,0.00,29.3,27.6,00.0,37.6,31.0,21.3,0000.0,0004.63,0010.08,0003.67
2023-05-28 19:38:00,,0828.2,5.00,0.00,29.3,27.7,00.0,37.6,31.1,21.2,0000.0,0004.63,0009.96,0003.66
2023-05-28 19:39:00,,0828.3,5.01,0.00,29.4,27.9,00.0,37.6,31.1,21.1,0000.0,0004.59,0009.88,0003.65
2023-05-28 19:40:00,,0828.3,5.00,0.00,29.4,28.0,00.0,37.6,31.1,19.8,0000.0,0004.59,0009.70,0003.64
2023-05-28 19:41:00,,0828.3,5.00,0.00,29.4,28.1,00.0,37.7,31.2,19.2,0000.0,0004.54,0009.16,0003.63
2023-05-28 19:42:00,,0828.3,5.00,0.00,29.5,28.2,00.0,37.7,31.2,21.1,0000.0,0004.50,0009.28,0003.62
2023-05-28 19:43:00,,0828.2,5.00,0.00,29.5,28.3,00.0,37.7,31.2,21.6,0000.0,0004.50,0009.30,0003.61
2023-05-28 19:44:00,,0828.3,4.99,0.00,29.5,27.7,00.0,37.7,31.2,22.1,0000.0,0004.52,0009.28,0003.60
2023-05-28 19:45:00,,0828.3,5.00,0.00,29.5,26.1,00.0,37.6,31.0,21.8,0000.0,0004.49,0009.11,0003.60
2023-05-28 19:46:00,,0828.2,5.02,0.00,29.4,25.8,00.0,37.5,30.9,22.1,0000.0,0004.48,0009.08,0003.61
2023-05-28 19:47:00,,0828.3,4.99,0.00,29.4,26.0,00.0,37.6,30.8,22.1,0000.0,0004.46,0008.98,0003.61
2023-05-28 19:48:00,,0828.2,5.00,0.00,29.3,26.3,00.0,37.6,30.8,21.8,0000.0,0004.46,0008.99,0003.62
2023-05-28 19:49:00,,0828.3,5.01,0.00,29.3,26.6,00.0,37.6,30.9,22.0,0000.0,0004.47,0009.17,0003.63
2023-05-28 19:50:00,,0828.3,4.99,0.00,29.3,26.9,00.0,37.6,30.9,21.2,0000.0,0004.51,0009.21,0003.63
2023-05-28 19:51:00,,0828.3,5.00,0.00,29.3,27.2,00.0,37.6,31.0,20.8,0000.0,0004.50,0010.05,0003.63
2023-05-28 19:52:00,,0828.3,4.99,0.00,29.3,27.4,00.0,37.6,31.0,20.9,0000.0,0004.47,0009.97,0003.63
2023-05-28 19:53:00,,0828.3,4.99,0.00,29.3,27.6,00.0,37.6,31.1,20.5,0000.0,0004.51,0010.37,0003.62
2023-05-28 19:54:00,,0828.3,5.00,0.00,29.4,27.8,00.0,37.6,31.1,20.5,0000.0,0004.54,0010.64,0003.62
2023-05-28 19:55:00,,0828.3,5.00,0.00,29.4,27.9,00.0,37.7,31.1,20.6,0000.0,0004.58,0011.20,0003.62
2023-05-28 19:56:00,,0828.3,5.00,0.00,29.4,28.1,00.0,37.7,31.2,20.9,0000.0,0004.57,0011.27,0003.62
2023-05-28 19:57:00,,0828.4,5.01,0.00,29.5,28.2,00.0,37.7,31.2,21.1,0000.0,0004.52,0011.12,0003.60
2023-05-28 19:58:00,,0828.3,5.01,0.00,29.5,28.1,00.0,37.7,31.3,20.2,0000.0,0004.49,0011.07,0003.58
2023-05-28 19:59:00,,0828.3,4.99,0.00,29.5,26.6,00.0,37.7,31.0,20.1,0000.0,0004.43,0011.24,0003.55
